EW9732 Weather Reports


Display with metric or nautical units.
time (UTC)temp
F
wind
direction
speed
MPH
gust
MPH
rain 1hr
in
rain 24hr
in
rain mn
in
humidity
%
barometer
mb
20240713044559 78 120 0.0 3.0 0.00 0.00 0.00 28 1004.7
20240713043117 78 120 0.0 2.0 0.00 0.00 0.00 29 1004.7
20240713041558 79 120 0.0 0.0 0.00 0.00 0.00 29 1004.7
20240713040106 80 92 0.0 1.0 0.00 0.00 0.00 27 1004.6
20240713034557 81 91 0.0 0.0 0.00 0.00 0.00 24 1004.5
20240713033056 83 91 0.0 1.0 0.00 0.00 0.00 21 1004.1
20240713031556 85 179 0.0 1.0 0.00 0.00 0.00 21 1004.0
20240713030101 86 132 0.0 1.0 0.00 0.00 0.00 18 1003.8
20240713024601 87 172 0.0 0.0 0.00 0.00 0.00 16 1003.5
20240713023155 89 172 0.0 1.0 0.00 0.00 0.00 14 1003.3
20240713021553 91 157 0.0 3.0 0.00 0.00 0.00 12 1003.1
20240713020111 92 171 0.0 5.0 0.00 0.00 0.00 12 1003.2
20240713014555 93 173 0.0 1.0 0.00 0.00 0.00 12 1003.3
20240713013051 94 166 0.0 6.0 0.00 0.00 0.00 12 1003.4
20240713011550 95 168 0.0 5.0 0.00 0.00 0.00 12 1003.4
20240713010055 94 122 1.0 9.0 0.00 0.00 0.00 11 1003.1
20240713004552 94 160 2.0 8.0 0.00 0.00 0.00 11 1003.2
20240713003048 94 154 0.0 3.0 0.00 0.00 0.00 12 1003.1
20240713001548 96 163 0.0 4.0 0.00 0.00 0.00 12 1002.9
20240713000047 98 156 0.0 4.0 0.00 0.00 0.00 11 1002.6
20240712234546 98 170 1.0 9.0 0.00 0.00 0.00 11 1002.7
20240712233046 99 167 0.0 7.0 0.00 0.00 0.00 12 1002.6
20240712231556 99 100 2.0 7.0 0.00 0.00 0.00 11 1002.5
20240712230101 99 161 1.0 8.0 0.00 0.00 0.00 11 1002.5
20240712224545 99 171 2.0 6.0 0.00 0.00 0.00 10 1002.7
20240712223045 100 97 0.0 4.0 0.00 0.00 0.00 11 1002.9
20240712221541 100 169 1.0 5.0 0.00 0.00 0.00 10 1003.1
20240712220040 99 167 1.0 10.0 0.00 0.00 0.00 9 1003.1
20240712214539 100 170 2.0 8.0 0.00 0.00 0.00 11 1003.2
20240712213038 101 172 0.0 5.0 0.00 0.00 0.00 10 1003.2
20240712211539 100 160 1.0 4.0 0.00 0.00 0.00 10 1003.3
20240712210046 100 166 2.0 8.0 0.00 0.00 0.00 10 1003.6
20240712204536 99 147 1.0 12.0 0.00 0.00 0.00 10 1003.7
20240712203037 99 165 0.0 8.0 0.00 0.00 0.00 10 1003.9
20240712201556 99 173 2.0 10.0 0.00 0.00 0.00 10 1004.1
20240712200030 99 135 1.0 7.0 0.00 0.00 0.00 10 1004.2
20240712194532 100 144 2.0 7.0 0.00 0.00 0.00 9 1004.4
20240712193027 99 131 3.0 8.0 0.00 0.00 0.00 10 1004.4
20240712191533 99 145 2.0 14.0 0.00 0.00 0.00 10 1004.6
20240712190033 99 165 1.0 6.0 0.00 0.00 0.00 10 1004.6
20240712184524 99 146 4.0 10.0 0.00 0.00 0.00 7 1004.8
20240712183030 98 148 0.0 10.0 0.00 0.00 0.00 9 1004.6
20240712181521 97 147 5.0 11.0 0.00 0.00 0.00 7 1004.4
20240712180018 97 177 2.0 11.0 0.00 0.00 0.00 9 1005.0
20240712174516 97 134 2.0 12.0 0.00 0.00 0.00 8 1005.0
20240712173014 96 137 2.0 12.0 0.00 0.00 0.00 8 1005.2
20240712171512 96 150 2.0 8.0 0.00 0.00 0.00 10 1004.8
20240712170118 95 139 0.0 6.0 0.00 0.00 0.00 11 1005.1
20240712164507 95 171 0.0 3.0 0.00 0.00 0.00 15 1005.0
20240712163004 94 147 0.0 0.0 0.00 0.00 0.00 17 1005.1
20240712161502 92 124 0.0 0.0 0.00 0.00 0.00 19 1005.2
20240712160058 90 116 0.0 0.0 0.00 0.00 0.00 21 1005.6
20240712154557 89 127 0.0 0.0 0.00 0.00 0.00 22 1005.8
20240712153054 88 94 0.0 0.0 0.00 0.00 0.00 26 1005.8
20240712151548 86 98 0.0 1.0 0.00 0.00 0.00 27 1005.8
20240712150045 84 109 1.0 4.0 0.00 0.00 0.00 29 1006.0
20240712144541 82 97 1.0 3.0 0.00 0.00 0.00 30 1006.1
20240712143038 81 114 0.0 1.0 0.00 0.00 0.00 31 1006.2
20240712141536 78 128 0.0 0.0 0.00 0.00 0.00 36 1006.1
20240712140029 75 122 0.0 0.0 0.00 0.00 0.00 38 1006.3
20240712134525 74 122 0.0 0.0 0.00 0.00 0.00 40 1006.3
20240712133044 70 129 0.0 0.0 0.00 0.00 0.00 42 1006.3
20240712131525 68 98 0.0 0.0 0.00 0.00 0.00 49 1006.3
20240712130024 64 98 0.0 0.0 0.00 0.00 0.00 52 1006.1
20240712124522 63 113 0.0 0.0 0.00 0.00 0.00 55 1006.0
20240712123021 64 113 0.0 0.0 0.00 0.00 0.00 49 1005.8
20240712121521 63 101 0.0 0.0 0.00 0.00 0.00 48 1005.9
20240712120018 63 101 0.0 0.0 0.00 0.00 0.00 51 1005.7
20240712114516 64 101 0.0 0.0 0.00 0.00 0.00 48 1005.6
20240712113013 65 103 0.0 0.0 0.00 0.00 0.00 43 1005.6
20240712111513 66 96 0.0 0.0 0.00 0.00 0.00 43 1005.6
20240712110013 66 100 0.0 0.0 0.00 0.00 0.00 42 1005.5
20240712104512 67 100 0.0 0.0 0.00 0.00 0.00 40 1005.2
20240712103012 68 100 0.0 0.0 0.00 0.00 0.00 39 1005.1
20240712101511 68 100 0.0 1.0 0.00 0.00 0.00 37 1005.1
20240712100009 67 105 0.0 0.0 0.00 0.00 0.00 39 1004.9
20240712094512 67 105 0.0 0.0 0.00 0.00 0.00 42 1004.9
20240712093006 66 99 0.0 0.0 0.00 0.00 0.00 47 1005.0
20240712091506 65 99 0.0 0.0 0.00 0.00 0.00 47 1004.8
20240712090005 65 99 0.0 0.0 0.00 0.00 0.00 51 1004.9
20240712084607 66 103 0.0 0.0 0.00 0.00 0.00 48 1005.2
20240712083055 66 103 0.0 0.0 0.00 0.00 0.00 47 1005.2
20240712081555 67 103 0.0 0.0 0.00 0.00 0.00 45 1005.4
20240712080050 68 103 0.0 0.0 0.00 0.00 0.00 43 1005.5
20240712074548 69 103 0.0 0.0 0.00 0.00 0.00 40 1005.5
20240712073104 70 103 0.0 1.0 0.00 0.00 0.00 41 1005.6
20240712071551 71 111 0.0 5.0 0.00 0.00 0.00 40 1005.7
20240712070038 71 103 1.0 3.0 0.00 0.00 0.00 41 1006.0
20240712064536 71 97 0.0 0.0 0.00 0.00 0.00 41 1006.1
20240712063033 71 96 0.0 0.0 0.00 0.00 0.00 43 1006.2
20240712061531 72 127 0.0 0.0 0.00 0.00 0.00 40 1006.2
20240712060036 73 104 0.0 0.0 0.00 0.00 0.00 40 1006.2
20240712054527 75 110 0.0 0.0 0.00 0.00 0.00 37 1006.3
20240712053026 76 102 0.0 2.0 0.00 0.00 0.00 34 1006.2
20240712051526 77 124 0.0 1.0 0.00 0.00 0.00 34 1006.1
20240712050026 77 91 0.0 0.0 0.00 0.00 0.00 35 1006.0